Lexington Weather

Lexington, Massachusetts, USA

34°F
4/16/2021 11:18am 
  • Lexington Conditions: Light snow, Mist, Overcast
  • Temperature: 34.0°F / 1.1°C 
  • Dew Point: 32.7°F 
  • Relative Humidity: 95
  • Wind: Wind from N N Calm, 10-min avg: 1 mph, gust: 4 mph
  • Barometer: 29.46 inFalling 0.03  inHg/hr Falling Slowly
  • Visibility: ¾ mile
  • Snow Today: 1.7 in
  •   

Regional Weather Roundup
for Boston / Norton, MA

        
000
ASUS41 KBOX 150404
RWRBOX

REGIONAL WEATHER ROUNDUP
NATIONAL WEATHER SERVICE BOSTON/NORTON MA
1200 AM EDT THU APR 15 2021

NOTE:  "FAIR" INDICATES FEW OR NO CLOUDS BELOW 12,000 FEET WITH NO 
SIGNIFICANT WEATHER AND/OR OBSTRUCTIONS TO VISIBILITY.

MAZALL-150500-
EASTERN MASSACHUSETTS
  
CITY           SKY/WX    TMP DP  RH WIND       PRES   REMARKS
BOSTON         CLOUDY    49  40  71 SE7       29.95F                  
BEVERLY        NOT AVBL                                               
LAWRENCE       CLOUDY    47  38  71 SE3       29.95F                  
BEDFORD        CLOUDY    48  37  65 S3        29.92F                  
BLUE HILL        N/A     45  39  79 S8        29.91F                  
NORWOOD        CLOUDY    48  39  71 S5        29.94F                  
MARSHFIELD     CLOUDY    46  43  87 S6        29.95S                  
PLYMOUTH       CLOUDY    43  39  86 CALM      29.94F                  
TAUNTON          N/A    N/A N/A N/A MISG      29.94F                  
NEW BEDFORD    MOCLDY    45  41  86 SE9       29.94F                  
$$

MAZALL-150500-
CAPE COD AND THE ISLANDS
  
CITY           SKY/WX    TMP DP  RH WIND       PRES   REMARKS
FALMOUTH       PTCLDY    41  37  87 SE3       29.96S                  
HYANNIS        PTCLDY    41  36  82 CALM      29.94F                  
CHATHAM        CLEAR     41  36  82 E3        29.97F                  
PROVINCETOWN   CLEAR     40  37  89 E7        29.96                   
NANTUCKET      MOCLDY    39  36  89 SE6       29.96F                  
MARTHAS VNYRD  MOCLDY    43  39  86 SE6       29.95F                  
$$
 
MAZALL-150500-
CENTRAL AND WESTERN MASSACHUSETTS
  
CITY           SKY/WX    TMP DP  RH WIND       PRES   REMARKS
WORCESTER      CLOUDY    46  38  73 S8        29.91F                  
FITCHBURG      MOCLDY    49  40  71 S8        29.92F                  
ORANGE         MOCLDY    51  42  71 SE5       29.89F                  
SPRINGFIELD    CLOUDY    51  41  69 SE6       29.88F                  
WESTFIELD      MOCLDY    51  43  74 S7        29.88F                  
NORTH ADAMS    CLOUDY    59  42  53 E6        29.84S                  
PITTSFIELD     CLOUDY    53  43  68 CALM      29.83F                  
$$
 
RIZALL-150500-
RHODE ISLAND
  
CITY           SKY/WX    TMP DP  RH WIND       PRES   REMARKS
PROVIDENCE     MOCLDY    46  41  82 SE6       29.93                   
NEWPORT        MOCLDY    44  41  89 SE7       29.93F                  
BLOCK ISLAND   CLOUDY    44  40  85 SE10      29.93F                  
SMITHFIELD     MOCLDY    44  40  85 VRB3      29.93F                  
WESTERLY       PTCLDY    44  40  85 SE8       29.93F                  
$$
 
CTZALL-150500-
CONNECTICUT
  
CITY           SKY/WX    TMP DP  RH WIND       PRES   REMARKS
BRADLEY INTL   CLOUDY    50  42  74 SE8       29.89F                  
HARTFORD       CLOUDY    50  43  77 SE5       29.90F                  
BRIDGEPORT     CLOUDY    49  46  90 E14       29.89F                  
DANBURY        CLOUDY    54  45  71 SE7       29.87F                  
GROTON         CLOUDY    46  42  86 E10       29.92F                  
NEW HAVEN      CLOUDY    50  47  89 E9        29.90F                  
CHESTER        CLOUDY    46  46 100 E6        29.90F FOG              
MERIDEN        MOCLDY    48  43  82 SE5       29.90F                  
WILLIMANTIC    CLOUDY    46  40  79 CALM      29.92F                  
OXFORD         CLOUDY    47  47 100 E6        29.88F                  
$$

MEZ002-015-021-024-NHZ003-005-008-011-012-014-VTZ005-008-150500-
NORTHERN NEW ENGLAND
  
CITY           SKY/WX    TMP DP  RH WIND       PRES   REMARKS
PORTLAND ME    MOCLDY    44  39  82 SW3       29.96F                  
BANGOR ME      PTCLDY    41  32  70 S3        29.95R                  
CONCORD NH     CLOUDY    44  39  82 E3        29.93F                  
MANCHESTER NH  CLOUDY    47  38  71 SE8       29.91F                  
NASHUA NH      MOCLDY    47  36  65 E3        29.93F                  
PORTSMOUTH NH  CLOUDY    42  35  77 CALM      29.96F                  
JAFFREY NH     PTCLDY    43  38  82 CALM      29.90F                  
KEENE NH       PTCLDY    49  40  71 SE5       29.89S                  
BURLINGTON VT  MOCLDY    56  41  57 CALM      29.83F                  
MT. WASHINGTON MOCLDY    34  27  75 W3          N/A                   
$$

NYZ052-076-150500-
EASTERN NEW YORK
  
CITY           SKY/WX    TMP DP  RH WIND       PRES   REMARKS
ALBANY         CLOUDY    57  43  59 SE3       29.83S                  
NEW YORK CITY  CLOUDY    60  50  69 SW8       29.86F                  
$$
 
ANZALL-150500-
MARINE OBSERVATIONS
  
STATION/POSITION TIME  TEMP    WIND        PRES    VSBY  WAVE
                       AIR SEA DIR/SP/G                  HT/PER
                 (UTC) (F)     (DEG/KT/KT) (MB)    (MI)  (FT/S)
BOSTON BUOY      0340   45 44  150/  8/ 10 1014.4F
BUZZARDS BAY     0300          140/ 11/ 12 1015.4S
NANTUCKET SOUND  0340      47                N/A
MASS BAY-STELLWA 0304   46     180/ 10/ 12 1013.5F  1 7/8  5/11
ISLE OF SHOALS   0300   45     180/  9/  9 1014.3S
S OF BLOCK IS    0326      45                N/A           3/11
$$

......................KEY.........................
  SKY/WX - SKY CONDITION/PRESENT WEATHER
  TMP    - TEMPERATURE IN FAHRENHEIT
  DWPT   - DEWPOINT IN FAHRENHEIT
  RH     - RELATIVE HUMIDITY IN PERCENT
  WIND   - DIRECTION AND SPEED IN MPH
  PRES   - MEAN SEA LEVEL PRESSURE IN INCHES OF HG
  WCI    - WIND CHILL INDEX
  VSB    - VISIBILITY IN MILES
  HX     - HEAT INDEX
  TC     - TEMPERATURE IN CELSIUS
  VRB    - VARIABLE WIND DIRECTION
  N/A    - NOT AVAILABLE
  
      

Other recent Regional Weather Roundups

Fri Apr 16, 11:04am

Fri Apr 16, 10:05am

Fri Apr 16, 9:04am

Fri Apr 16, 8:04am

Fri Apr 16, 7:04am

Fri Apr 16, 6:04am

Fri Apr 16, 5:04am

Fri Apr 16, 4:04am

Fri Apr 16, 3:04am

Fri Apr 16, 2:04am

Fri Apr 16, 1:04am

Fri Apr 16, 12:04am

Thu Apr 15, 11:05pm

Thu Apr 15, 10:04pm

Thu Apr 15, 9:04pm

Thu Apr 15, 8:04pm

Thu Apr 15, 7:05pm

Thu Apr 15, 6:04pm

Thu Apr 15, 5:05pm

Thu Apr 15, 4:04pm

Thu Apr 15, 3:05pm

Thu Apr 15, 2:04pm

Thu Apr 15, 1:05pm

Thu Apr 15, 12:04pm

Thu Apr 15, 11:04am

Thu Apr 15, 10:05am

Thu Apr 15, 9:04am

Thu Apr 15, 8:04am

Thu Apr 15, 7:04am

Thu Apr 15, 6:04am

Thu Apr 15, 5:04am

Thu Apr 15, 4:04am

Thu Apr 15, 3:04am

Thu Apr 15, 2:04am

Thu Apr 15, 1:04am

Wed Apr 14, 11:04pm

Wed Apr 14, 10:04pm

Wed Apr 14, 9:04pm

Wed Apr 14, 8:04pm

Wed Apr 14, 7:04pm

Wed Apr 14, 6:04pm

Wed Apr 14, 5:05pm

Wed Apr 14, 4:04pm

Wed Apr 14, 3:05pm

Wed Apr 14, 2:04pm

Wed Apr 14, 1:05pm

Wed Apr 14, 12:04pm

Wed Apr 14, 11:04am

Wed Apr 14, 10:04am

Wed Apr 14, 9:04am

Wed Apr 14, 8:04am

Wed Apr 14, 7:04am

Wed Apr 14, 6:04am

Wed Apr 14, 5:04am

Wed Apr 14, 4:04am

Wed Apr 14, 3:04am

Wed Apr 14, 2:04am

Wed Apr 14, 1:04am

Wed Apr 14, 12:04am

Tue Apr 13, 11:04pm

Tue Apr 13, 10:05pm

Tue Apr 13, 9:05pm

Tue Apr 13, 8:05pm

Tue Apr 13, 7:04pm

Tue Apr 13, 6:04pm

Tue Apr 13, 5:05pm

Tue Apr 13, 4:04pm

Tue Apr 13, 3:04pm

Tue Apr 13, 2:05pm

Tue Apr 13, 1:04pm

Tue Apr 13, 12:05pm

Tue Apr 13, 11:05am

Tue Apr 13, 10:04am

Tue Apr 13, 9:04am

Tue Apr 13, 8:04am

Tue Apr 13, 7:04am

Tue Apr 13, 6:04am

Tue Apr 13, 5:04am

Tue Apr 13, 4:04am

Tue Apr 13, 3:04am

Tue Apr 13, 2:04am

Tue Apr 13, 1:04am

Tue Apr 13, 12:05am

Mon Apr 12, 11:04pm

Mon Apr 12, 10:04pm

Mon Apr 12, 9:04pm

Mon Apr 12, 8:04pm

Mon Apr 12, 7:05pm

Mon Apr 12, 6:04pm

Mon Apr 12, 5:04pm

Mon Apr 12, 4:04pm

Mon Apr 12, 3:05pm

Mon Apr 12, 2:04pm

Mon Apr 12, 1:05pm

Mon Apr 12, 12:04pm

Mon Apr 12, 11:04am

Mon Apr 12, 10:04am

Mon Apr 12, 9:04am

Mon Apr 12, 8:04am

Mon Apr 12, 7:04am

Mon Apr 12, 6:04am

Mon Apr 12, 5:04am

Mon Apr 12, 4:04am

Mon Apr 12, 3:04am

Mon Apr 12, 2:04am

Mon Apr 12, 1:05am

Mon Apr 12, 12:04am

Sun Apr 11, 11:04pm

Sun Apr 11, 10:04pm

Sun Apr 11, 9:04pm

Sun Apr 11, 8:04pm

Sun Apr 11, 7:04pm

Sun Apr 11, 6:05pm

Sun Apr 11, 5:05pm

Sun Apr 11, 4:04pm

Sun Apr 11, 3:05pm

Sun Apr 11, 2:05pm

Sun Apr 11, 1:05pm

Sun Apr 11, 12:04pm

Sun Apr 11, 11:05am

Sun Apr 11, 10:05am

Sun Apr 11, 9:04am

Sun Apr 11, 8:04am

Sun Apr 11, 7:04am

Sun Apr 11, 6:04am

Sun Apr 11, 5:04am

Sun Apr 11, 4:04am

Sun Apr 11, 3:04am

Sun Apr 11, 2:04am

Sun Apr 11, 1:05am

Sun Apr 11, 12:04am

Sat Apr 10, 11:05pm

Sat Apr 10, 10:04pm

Sat Apr 10, 9:04pm

Sat Apr 10, 8:04pm

Sat Apr 10, 7:05pm

Sat Apr 10, 6:04pm

Sat Apr 10, 5:04pm

Sat Apr 10, 4:04pm

Sat Apr 10, 3:04pm

Sat Apr 10, 2:05pm

Sat Apr 10, 1:04pm

Sat Apr 10, 12:04pm

Sat Apr 10, 11:04am

Sat Apr 10, 10:04am

Sat Apr 10, 9:04am

Sat Apr 10, 8:04am

Sat Apr 10, 7:04am

Sat Apr 10, 6:04am

Sat Apr 10, 5:04am

Sat Apr 10, 4:04am

Sat Apr 10, 3:04am

Sat Apr 10, 2:04am

Sat Apr 10, 1:05am

Sat Apr 10, 12:04am

Fri Apr 9, 11:04pm

Fri Apr 9, 10:05pm

Fri Apr 9, 9:04pm

Fri Apr 9, 8:05pm

Fri Apr 9, 7:05pm

Fri Apr 9, 6:04pm

Fri Apr 9, 5:04pm

Fri Apr 9, 4:05pm

Fri Apr 9, 3:05pm

Fri Apr 9, 2:04pm

Fri Apr 9, 1:04pm

Fri Apr 9, 12:04pm

Meta data:

ID: b7e536fe-ca94-4e70-ac3c-073e1dc25ede
Link: https://api.weather.gov/products/b7e536fe-ca94-4e70-ac3c-073e1dc25ede